{"data":{"norad_id":42945,"epoch":"2026-05-25T05:18:05.424768Z","epoch_age_seconds":66119,"freshness":"FRESH","line1":"1 42945U 17058A   26145.22089612  .00001892  00000+0  14004-3 0  9994","line2":"2 42945  34.9959 169.3181 0002614 296.3907  63.6533 15.02976157472432","mean_motion":15.02976157,"eccentricity":0.0002614,"inclination_deg":34.9959,"raan_deg":169.3181,"arg_perigee_deg":296.3907,"mean_anomaly_deg":63.6533,"bstar":0.00014004,"rev_number":47243,"period_min":95.809903124099,"perigee_km":555.91202492062,"apogee_km":559.5380936052,"semimajor_km":6935.8620592629,"source":"CELESTRAK","updated_at":"2026-05-25T13:37:55.721588Z"}}